Simultaneous Nadir Overpasses (SNOs) Predictions

Prediction of SNOs between GOES-16 and AQUA Satellite Orbit:

Table of predicted SNOs for the next 14.0 days since TLE Epoch: 10/20/2018
Index Date Time (GOES-16) GOES-16 Lat,Lon AQUA Lat,Lon Distance(km) Time Diff (sec)
1 10/20/2018 06:50:35 0.00, -75.21 0.65, -78.34 355.80 80
2 10/22/2018 06:38:23 0.00, -75.22 0.04, -75.38 18.39 80
3 10/24/2018 06:23:31 0.00, -75.23 -0.58, -72.42 319.51 80
4 10/24/2018 18:44:56 -0.00, -75.23 -0.50, -77.62 271.46 80
5 10/26/2018 18:35:24 -0.00, -75.25 0.13, -74.66 66.81 80
6 10/28/2018 18:23:12 -0.00, -75.26 0.76, -71.70 405.25 80
7 10/29/2018 06:44:27 0.00, -75.28 0.34, -76.85 179.43 80
8 10/31/2018 06:29:35 0.01, -75.30 -0.29, -73.90 159.33 80
9 10/31/2018 18:50:59 -0.01, -75.29 -0.82, -79.09 431.34 80
10 11/02/2018 06:17:23 0.01, -75.32 -0.92, -70.94 498.60 80
11 11/02/2018 18:38:47 -0.01, -75.32 -0.18, -76.13 91.82 80




NCC Satellite Simultaneous Nadir Overpasses (SNOs) Prediction Service
